Starlink 33678

operational
NORAD ID: 63509 Int'l Des: 2025-071 Owner: SPXS Country: US Constellation: starlink
LEOCIRCULAR

Über Starlink 33678

Beschreibung wird geladen...

Live-Position

3D-Globus wird geladen...

Nächste Überflüge

Höhenverlauf

Altitude vs Time

uPlot chart will show altitude changes over time

Zweizeiliger Elementsatz

1 63509U 25071S 25303.48116341 .00031072 00000-0 10564-2 0 9990
2 63509 53.1626 24.7458 0001597 84.5225 275.5958 15.30214004 32563
Epoch: 30. Okt. 2025 • Age: 28 hours

Aktueller Status

Höhe 483.9 km
Geschwindigkeit 7.62 km/s
Subsatellitenpunkt -27.83°S, 81.84°E
Startdatum 7. Apr. 2025
Alter 0.5 years
Typ internet

Technische Details

Klassifizierung Payload
Masse 575.00 kg
Trockenmasse 530.00 kg
Gesamtmasse 575.00 kg
Länge 0.30 m
Durchmesser 4.10 m
Spannweite 29.00 m
Form Box + pan
Hersteller SPXS
Bus-Typ Starlink V2MO
Phasenstatus In Orbit
Besitzer/Staat SPXS/US

Große Konstellationen

Loading constellations...